If you wish to contribute or participate in the discussions about articles you are invited to join SKYbrary as a registered user

 Actions

Alfonso López Pumarejo Airport

From SKYbrary Wiki

SKVP
Airport
ICAO: SKVP – IATA: VUP
Summary
Name Alfonso López Pumarejo Airport
Region South America and Caribbean
Territory Colombia CO.gif
Location Valledupar, Cesar department
Serving Valledupar
Elevation 147.828 m
485 ft147.828 m
Coordinates 10° 26' 3.18" N, 73° 14' 58.65" W
Runways
Designator Length Width Surface ROPS
2/20 2100 m6,889.764 ft
30 m98.425 ft
ASP yes/yes


METAR
Observation SKVP 231300Z 05010KT 9999 FEW015 SCT090 27/22 A2995
Station Valledupar / Alfonso Lopez
Date/Time 23 April 2019 13:00:00
Wind direction 50°
Wind speed 10 kts
Lowest cloud amount few clouds
Temperature 27°C
Dew point 22°C
Humidity 74%
QNH hPa
Weather condition n/a

Alfonso López Pumarejo Airport serves as air terminal for the city of Valledupar, Colombia and as a small Colombian Air Force and Colombian Police air base.

Climatology

Tropical savanna climate (Köppen climate classification Aw)

Maps

Terrain

Loading map...

Airport Layout

Loading map...


Accidents & Serious Incidents at or in vicinity of SKVP

None on SKYbrary